Voltar ao catálogo

COSMOS 2251 DEB

AtivoLEO
NORAD 47068·DEBRIS·🇷🇺 Russia

Lançado Jun 16, 1993 de Plesetsk Cosmodrome

Loading…

Próximas Passagens (próximas 24 horas)

TLE

AtualizadoSource: Space-Track

Época: Sep 14, 2026, 02:03 UTC

1 47068U 93036BXY 26257.08549499  .00002237  00000-0  52586-3 0  9999
2 47068  74.0226  42.5407 0017620  63.5528 296.7440 14.54907720657598

Acompanhe COSMOS 2251 DEB em tempo real com AllMySat

Download on the App Store